Location: Goettingen
(51.5300°N, 9.9433°E)
Time: 07:51:53
(UTC+02:00)

ISS - Pass Details

Date: 10 May 2021
Orbit: 417 x 422 km, 51.6° (Epoch: 18 May)

Event Time Altitude Azimuth Distance (km) Brightness Sun altitude
Exits shadow 01:17:27 12° 88° (E) 1,366 -1.1 -20.8°
Drops below altitude 10° 01:17:49 10° 85° (E) 1,505 -0.9 -20.8°
Sets 01:20:02 0° 76° (ENE) 2,373 0.3 -20.8°
